Hovedside
METAR-TAF:

METAR-TAF

Lufthavner :

Ljungbyhed, Sverige

breddegrad: 56-04N, lengdegrad: 013-12E, høyde over havet: 43 m

Gjeldene værobservasjon

Denne rapporten ble laget for 11 minutter siden, klokken 10:20 UTC
Vind 10 kt fra Vest-sørvest
Temperatur 14°C
Luftfuktighet 88%
Trykk 1002 hPa
Sikt 10 km eller mer

METAR: ESTL 251020Z AUTO 24010KT 9999NDV FEW032/// BKN051/// 14/12 Q1002 REDZ

Tid: 12:31 (10:31 UTC)


TAF: fraværende

Værobservasjoner og værvarsel for over 4000 flyplasser (METAR- og TAF-rapporter).

Tilgjengelige stasjoner er representert av de røde og gule prikkene på kartet.

Hold musepekeren over prikken for å se navnet på stasjonen.

Klikk så for å se værobservasjoner og -varsler.

For å forandre kartet kan du klikke på den grønne knappen med svart kryss for å zoome inn, på den grønne knappen med strek for å zoome ut, eller på de grønne pilene for å se tilstøtende kart.


METAR-TAF: